This is the latest recevied weather packets stored in our database for station/object R1CBW-13. If no packets are shown the sender has not sent any weather packets the latest 10 day(s).
| Time | Temp. | Humidity | Pressure | Rain* | Wind** | Luminosity | Snow |
|---|---|---|---|---|---|---|---|
| 1778325813 | 11.67° C | 28% | 1027 hPa | 0 mm | - | - | - |
| 1778325753 | 12.22° C | 28% | 1027 hPa | 0 mm | - | - | - |
| 1778325693 | 12.22° C | 28% | 1027 hPa | 0 mm | - | - | - |
| 1778325633 | 12.22° C | 27% | 1026.9 hPa | 0 mm | - | - | - |
| 1778325573 | 11.67° C | 28% | 1027 hPa | 0 mm | - | - | - |
| 1778325513 | 12.22° C | 27% | 1027 hPa | 0 mm | - | - | - |
| 1778325453 | 11.67° C | 27% | 1027 hPa | 0 mm | - | - | - |
| 1778325393 | 12.78° C | 27% | 1027.1 hPa | 0 mm | - | - | - |
| 1778325333 | 11.67° C | 28% | 1027 hPa | 0 mm | - | - | - |
| 1778325273 | 11.67° C | 28% | 1027.1 hPa | 0 mm | - | - | - |
| 1778325213 | 12.22° C | 28% | 1027.1 hPa | 0 mm | - | - | - |
| 1778325153 | 12.22° C | 27% | 1027.1 hPa | 0 mm | - | - | - |
| 1778325093 | 11.67° C | 27% | 1027.2 hPa | 0 mm | - | - | - |
| 1778325033 | 12.22° C | 27% | 1027.2 hPa | 0 mm | - | - | - |
| 1778324973 | 12.22° C | 27% | 1027.2 hPa | 0 mm | - | - | - |
| 1778324913 | 12.22° C | 27% | 1027.3 hPa | 0 mm | - | - | - |
| 1778324853 | 12.22° C | 28% | 1027.4 hPa | 0 mm | - | - | - |
| 1778324793 | 12.78° C | 28% | 1027.3 hPa | 0 mm | - | - | - |
| 1778324733 | 11.67° C | 29% | 1027.1 hPa | 0 mm | - | - | - |
| 1778324673 | 12.22° C | 27% | 1027.1 hPa | 0 mm | - | - | - |
| 1778324613 | 12.78° C | 27% | 1027.2 hPa | 0 mm | - | - | - |
| 1778324553 | 12.22° C | 27% | 1027.2 hPa | 0 mm | - | - | - |
| 1778324493 | 12.22° C | 28% | 1027.2 hPa | 0 mm | - | - | - |
| 1778324433 | 12.22° C | 27% | 1027.2 hPa | 0 mm | - | - | - |
| 1778324373 | 12.22° C | 28% | 1027.2 hPa | 0 mm | - | - | - |
* Rain latest hour (hover to see other rain measurements)
** Current wind speed in m/s (hover to see current wind gust speed)